GPS BIIF-3 (PRN 24)

Last updated on Tue Sep 22 2026 00:03:33 GMT+0000 (Coordinated Universal Time)

1 38833U 12053A 26264.04300533 .00000001 00000+0 00000+0 0 9993 2 38833 53.5980 139.6690 0185991 67.5380 294.5017 2.00557214101368
UTC large
Height (km)
Speed (km/s)
/
Latitude / Longitude
Inclination (degrees)
Orbital Period (minutes)
Azimuth
Elevation
Range (km)
Doppler Factor

Next 0 passes for location: London (51.5072 / 0.1276)

No passes found over London.
GPS BIIF-3 (PRN 24)